EW2493 Weather Reports


Display with metric or nautical units.
time (UTC)temp
F
wind
direction
speed
MPH
gust
MPH
rain 1hr
in
rain 24hr
in
rain mn
in
humidity
%
barometer
mb
20260901230007 73 141 0.0 0.0 0.00 0.00 0.00 65 1005.7
20260901224508 73 141 0.0 0.0 0.00 0.00 0.00 67 1005.8
20260901223005 74 142 0.0 0.0 0.00 0.00 0.00 71 1005.6
20260901221503 75 142 0.0 0.0 0.00 0.00 0.00 70 1005.9
20260901220007 75 102 1.0 2.0 0.00 0.00 0.00 67 1005.7
20260901214501 75 97 0.0 3.0 0.00 0.00 0.00 66 1005.6
20260901213000 76 117 2.0 4.0 0.00 0.00 0.00 64 1006.0
20260901211601 76 117 1.0 4.0 0.00 0.00 0.00 62 1006.3
20260901210129 76 137 4.0 8.0 0.00 0.00 0.00 59 1006.5
20260901204558 76 140 0.0 1.0 0.00 0.00 0.00 62 1006.6
20260901203056 75 114 1.0 3.0 0.00 0.00 0.00 64 1006.3
20260901201555 75 109 0.0 2.0 0.00 0.00 0.00 61 1006.1
20260901200056 75 83 0.0 0.0 0.00 0.00 0.00 64 1005.9
20260901194602 75 35 0.0 1.0 0.00 0.00 0.00 64 1006.1
20260901193058 74 70 0.0 0.0 0.00 0.00 0.00 64 1006.2
20260901191601 74 66 0.0 1.0 0.00 0.00 0.00 61 1006.2
20260901190116 74 60 0.0 1.0 0.00 0.00 0.00 63 1006.3
20260901184551 75 63 0.0 1.0 0.00 0.01 0.00 61 1006.4
20260901183051 75 53 0.0 1.0 0.00 0.01 0.00 62 1006.5
20260901181549 75 76 0.0 0.0 0.00 0.01 0.00 63 1006.5
20260901180048 75 27 0.0 1.0 0.00 0.01 0.00 61 1006.2
20260901174553 75 76 0.0 3.0 0.00 0.01 0.00 59 1006.3
20260901173046 75 35 0.0 3.0 0.00 0.01 0.00 59 1006.6
20260901171551 74 43 0.0 6.0 0.00 0.01 0.00 58 1006.8
20260901170044 75 65 3.0 7.0 0.00 0.01 0.00 56 1007.1
20260901164551 75 104 3.0 7.0 0.00 0.01 0.00 58 1007.0
20260901163102 74 101 4.0 7.0 0.00 0.01 0.00 58 1007.1
20260901161536 73 84 3.0 5.0 0.00 0.01 0.00 60 1006.9
20260901160034 72 82 1.0 4.0 0.00 0.01 0.00 62 1007.1
20260901154546 71 104 2.0 5.0 0.00 0.02 0.00 64 1007.2
20260901153037 70 87 2.0 4.0 0.00 0.02 0.00 65 1007.0
20260901151522 68 108 0.0 3.0 0.00 0.02 0.00 69 1007.2
20260901144519 66 76 0.0 0.0 0.00 0.02 0.00 71 1007.2
20260901143012 65 23 0.0 0.0 0.00 0.02 0.00 72 1007.1
20260901141514 65 20 0.0 4.0 0.00 0.02 0.00 71 1007.5
20260901140013 64 142 0.0 1.0 0.00 0.02 0.00 72 1007.7
20260901134509 64 142 0.0 1.0 0.00 0.02 0.00 69 1007.6
20260901133007 63 142 0.0 1.0 0.00 0.02 0.00 72 1007.8
20260901131505 60 142 0.0 0.0 0.00 0.02 0.00 70 1007.7
20260901130006 58 142 0.0 0.0 0.00 0.02 0.00 61 1007.7
20260901124505 55 142 0.0 1.0 0.00 0.02 0.00 44 1007.6
20260901123003 53 142 1.0 2.0 0.00 0.02 0.00 50 1007.6
20260901121505 52 157 0.0 9.0 0.00 0.02 0.00 40 1007.4
20260901120058 50 291 0.0 2.0 0.00 0.02 0.00 34 1007.0
20260901114558 51 274 2.0 4.0 0.00 0.02 0.00 48 1006.8
20260901113057 50 251 1.0 2.0 0.00 0.02 0.00 43 1006.6
20260901111608 50 250 1.0 2.0 0.00 0.02 0.00 38 1006.7
20260901110053 51 250 0.0 2.0 0.00 0.02 0.00 50 1006.7
20260901104556 52 246 0.0 3.0 0.00 0.02 0.00 54 1006.7
20260901103048 52 258 2.0 5.0 0.00 0.02 0.00 57 1006.6
20260901101547 52 282 1.0 2.0 0.00 0.02 0.00 46 1006.4
20260901100052 52 44 0.0 3.0 0.00 0.02 0.00 50 1006.4
20260901094549 53 281 1.0 10.0 0.00 0.02 0.00 52 1006.3
20260901093041 53 258 0.0 2.0 0.00 0.02 0.00 52 1006.0
20260901091544 53 197 3.0 5.0 0.00 0.02 0.00 38 1005.9
20260901090052 52 280 1.0 3.0 0.00 0.02 0.00 37 1005.4
20260901083033 54 268 1.0 3.0 0.00 0.02 0.00 49 1005.5
20260901081530 55 263 0.0 3.0 0.00 0.02 0.00 56 1005.7
20260901080029 55 256 1.0 3.0 0.00 0.02 0.00 60 1005.7
20260901074526 55 244 0.0 2.0 0.00 0.02 0.00 60 1005.9
20260901073029 56 265 0.0 4.0 0.00 0.02 0.00 64 1005.9
20260901071523 57 265 1.0 3.0 0.00 0.02 0.00 65 1005.9
20260901070022 57 270 1.0 3.0 0.00 0.02 0.00 66 1006.0
20260901064520 57 274 0.0 2.0 0.00 0.02 0.00 62 1006.1
20260901063017 58 275 1.0 3.0 0.00 0.02 0.00 61 1006.1
20260901061516 58 276 1.0 3.0 0.00 0.02 0.00 54 1006.1
20260901060022 59 276 2.0 3.0 0.00 0.02 0.00 52 1005.9
20260901054515 58 225 0.0 0.0 0.00 0.03 0.00 59 1006.0
20260901053007 60 224 0.0 0.0 0.00 0.03 0.00 70 1005.9
20260901051504 62 223 0.0 2.0 0.00 0.03 0.00 72 1005.8
20260901050101 64 223 0.0 2.0 0.00 0.03 0.00 72 1005.7
20260901044558 64 209 0.0 2.0 0.00 0.03 0.03 72 1005.6
20260901043052 64 222 0.0 1.0 0.00 0.03 0.03 72 1005.5
20260901041547 64 236 0.0 2.0 0.00 0.03 0.03 72 1005.5
20260901040043 66 228 0.0 1.0 0.00 0.03 0.03 72 1005.3
20260901034543 68 202 0.0 1.0 0.00 0.03 0.03 69 1005.2
20260901033043 69 200 0.0 4.0 0.00 0.03 0.03 69 1005.1
20260901031546 69 220 0.0 3.0 0.00 0.03 0.03 68 1005.0
20260901030040 69 230 0.0 2.0 0.00 0.03 0.03 67 1004.9
20260901024537 69 230 0.0 2.0 0.00 0.03 0.03 67 1004.9
20260901023033 70 154 0.0 2.0 0.00 0.03 0.03 65 1004.6
20260901021544 73 153 2.0 4.0 0.00 0.03 0.03 61 1004.3
20260901020024 73 203 0.0 4.0 0.00 0.03 0.03 59 1004.2
20260901014520 73 208 1.0 4.0 0.00 0.03 0.03 58 1004.1
20260901013115 72 228 0.0 3.0 0.00 0.03 0.03 59 1003.8
20260901011517 76 301 1.0 5.0 0.00 0.03 0.03 56 1003.7
20260901010020 80 199 1.0 6.0 0.00 0.03 0.03 48 1003.5
20260901004501 83 194 1.0 3.0 0.00 0.03 0.03 43 1003.5
20260901003104 84 210 0.0 4.0 0.00 0.03 0.03 39 1003.5
20260901001553 85 190 1.0 5.0 0.00 0.03 0.03 36 1003.5
20260901000051 85 203 3.0 7.0 0.00 0.03 0.03 37 1003.4
20260831234545 85 206 4.0 10.0 0.00 0.03 0.03 36 1003.3
20260831233040 86 213 4.0 10.0 0.00 0.03 0.03 35 1003.4
20260831231535 87 194 5.0 13.0 0.00 0.03 0.03 31 1003.4